Date String (YYYY-MM-DD hh:mm:ss) UTC,Instrument flags,Ambient pressure (hPa),Sample flow (lpm),Bypass flow (lpm),Sample temperature (°C),Ambient temperature (°C),ASC tube jacket temperature (°C),LED temperature (°C),Box temperature (°C),Sample RH (%),Span deviation,Mass concentration (μg/m³),Mass concentration (μg/m³),Mass concentration (μg/m³)
DateTimeUTC,F1_M11,P_M11,Q1_M11,Q2_M11,T1_M11,T2_M11,T3_M11,T4_M11,T5_M11,U1_M11,ZSPAN_M11,X2_M11,X0_M11,X1_M11
2023-01-29 17:00:00,,0824.1,5.00,0.00,22.7,21.1,00.0,31.6,24.3,05.2,0000.0,0004.30,0008.05,0003.87
2023-01-29 17:01:00,,0824.1,5.01,0.00,22.7,20.9,00.0,31.6,24.2,05.2,0000.0,0004.29,0007.85,0003.86
2023-01-29 17:02:00,,0824.1,4.99,0.00,22.7,21.5,00.0,31.6,24.4,05.2,0000.0,0004.29,0007.44,0003.87
2023-01-29 17:03:00,,0824.1,5.00,0.00,22.8,22.4,00.0,31.6,24.7,05.2,0000.0,0004.33,0007.56,0003.87
2023-01-29 17:04:00,,0824.2,5.01,0.00,22.9,23.2,00.0,31.6,24.9,05.2,0000.0,0004.34,0007.54,0003.88
2023-01-29 17:05:00,,0824.2,4.99,0.00,22.9,22.8,00.0,31.6,24.9,05.2,0000.3,0004.37,0007.62,0003.88
2023-01-29 17:06:00,,0824.1,5.00,0.00,22.9,22.3,00.0,31.7,24.7,05.2,-000.1,0004.37,0007.69,0003.88
2023-01-29 17:07:00,,0824.1,5.00,0.00,22.9,21.8,00.0,31.7,24.6,05.2,-000.2,0004.38,0008.02,0003.88
2023-01-29 17:08:00,,0824.1,5.00,0.00,22.8,21.5,00.0,31.7,24.5,05.2,0000.5,0004.38,0007.98,0003.88
2023-01-29 17:09:00,,0824.1,5.00,0.00,22.8,21.3,00.0,31.7,24.4,05.2,0001.0,0004.37,0007.74,0003.88
2023-01-29 17:10:00,,0824.2,5.01,0.00,22.7,21.1,00.0,31.7,24.3,05.2,0000.8,0004.38,0007.78,0003.88
2023-01-29 17:11:00,,0824.2,4.99,0.00,22.7,20.9,00.0,31.6,24.2,05.3,0000.4,0004.39,0007.79,0003.88
2023-01-29 17:12:00,,0824.2,5.01,0.00,22.7,21.3,00.0,31.6,24.3,05.2,0000.6,0004.47,0007.97,0003.90
2023-01-29 17:13:00,,0824.2,5.01,0.00,22.8,22.4,00.0,31.6,24.6,05.2,-000.1,0004.50,0008.07,0003.91
2023-01-29 17:14:00,,0824.3,4.99,0.00,22.9,23.2,00.0,31.6,24.9,05.2,-000.0,0004.50,0008.06,0003.92
2023-01-29 17:15:00,,0824.3,5.01,0.00,22.9,22.8,00.0,31.6,24.8,05.1,0000.1,0004.50,0008.03,0003.93
2023-01-29 17:16:00,,0824.2,5.00,0.00,22.9,22.3,00.0,31.7,24.7,05.2,0000.3,0004.51,0008.08,0003.94
2023-01-29 17:17:00,,0824.2,5.00,0.00,22.9,21.9,00.0,31.7,24.6,05.2,0001.2,0004.54,0007.96,0003.94
2023-01-29 17:18:00,,0824.3,5.01,0.00,22.8,21.5,00.0,31.7,24.5,05.2,0001.6,0004.54,0007.66,0003.94
2023-01-29 17:19:00,,0824.3,4.99,0.00,22.8,21.2,00.0,31.7,24.4,05.2,0000.3,0004.52,0007.53,0003.93
2023-01-29 17:20:00,,0824.2,5.00,0.00,22.7,21.0,00.0,31.7,24.3,05.2,0000.0,0004.50,0007.47,0003.93
2023-01-29 17:21:00,,0824.2,4.99,0.00,22.7,21.0,00.0,31.6,24.3,05.2,0000.0,0004.49,0007.45,0003.93
2023-01-29 17:22:00,,0824.2,5.02,0.00,22.7,21.9,00.0,31.6,24.5,05.2,0000.0,0004.49,0007.41,0003.93
2023-01-29 17:23:00,,0824.2,4.99,0.00,22.8,22.8,00.0,31.6,24.8,05.2,0000.0,0004.45,0007.34,0003.93
2023-01-29 17:24:00,,0824.2,4.99,0.00,22.9,23.2,00.0,31.6,24.9,05.2,0000.0,0004.41,0007.20,0003.92
2023-01-29 17:25:00,,0824.2,5.01,0.00,23.0,22.7,00.0,31.7,24.8,05.2,0000.0,0004.43,0007.30,0003.93
2023-01-29 17:26:00,,0824.2,5.00,0.00,22.9,22.2,00.0,31.7,24.7,05.2,0000.0,0004.46,0007.40,0003.94
2023-01-29 17:27:00,,0824.3,4.99,0.00,22.9,21.8,00.0,31.7,24.6,05.2,0000.0,0004.43,0007.23,0003.94
2023-01-29 17:28:00,,0824.2,4.99,0.00,22.8,21.5,00.0,31.7,24.5,05.2,0000.0,0004.42,0007.17,0003.95
2023-01-29 17:29:00,,0824.1,5.01,0.00,22.8,21.2,00.0,31.7,24.4,05.2,-000.0,0004.44,0007.18,0003.96
2023-01-29 17:30:00,,0824.1,5.00,0.00,22.7,21.0,00.0,31.7,24.3,05.3,-000.0,0004.47,0007.43,0003.97
2023-01-29 17:31:00,,0824.2,4.99,0.00,22.7,20.9,00.0,31.6,24.3,05.3,0000.5,0004.51,0007.66,0003.98
2023-01-29 17:32:00,,0824.1,5.01,0.00,22.7,21.7,00.0,31.6,24.5,05.2,0000.3,0004.54,0007.71,0003.99
2023-01-29 17:33:00,,0824.1,4.99,0.00,22.8,22.6,00.0,31.6,24.8,05.2,0000.3,0004.58,0007.82,0004.01
2023-01-29 17:34:00,,0824.1,4.99,0.00,22.9,23.2,00.0,31.6,24.9,05.2,0000.0,0004.58,0007.84,0004.01
2023-01-29 17:35:00,,0824.2,4.99,0.00,23.0,22.8,00.0,31.7,24.9,05.1,0000.0,0004.60,0007.88,0004.01
2023-01-29 17:36:00,,0824.2,5.02,0.00,22.9,22.3,00.0,31.7,24.7,05.1,0000.0,0004.59,0007.81,0004.01
2023-01-29 17:37:00,,0824.2,4.99,0.00,22.9,21.9,00.0,31.7,24.6,05.1,0000.0,0004.56,0007.73,0003.99
2023-01-29 17:38:00,,0824.2,5.00,0.00,22.9,21.6,00.0,31.7,24.5,05.1,0000.0,0004.58,0007.84,0004.00
2023-01-29 17:39:00,,0824.1,4.98,0.00,22.8,21.4,00.0,31.7,24.4,05.1,0000.0,0004.60,0007.91,0003.99
2023-01-29 17:40:00,,0824.1,4.99,0.00,22.8,21.2,00.0,31.7,24.4,05.2,0000.0,0004.58,0008.07,0003.99
2023-01-29 17:41:00,,0824.1,5.01,0.00,22.7,21.0,00.0,31.7,24.3,05.2,0000.0,0004.59,0008.00,0004.00
2023-01-29 17:42:00,,0824.1,5.00,0.00,22.7,21.1,00.0,31.7,24.3,05.2,0000.0,0004.60,0007.98,0004.00
2023-01-29 17:43:00,,0824.2,5.01,0.00,22.8,22.0,00.0,31.6,24.6,05.2,0000.0,0004.59,0008.71,0004.01
2023-01-29 17:44:00,,0824.2,4.99,0.00,22.9,23.1,00.0,31.6,24.9,05.2,0000.0,0004.59,0008.73,0004.00
2023-01-29 17:45:00,,0824.1,5.00,0.00,23.0,23.2,00.0,31.7,24.9,05.2,0000.0,0004.60,0008.74,0004.01
2023-01-29 17:46:00,,0824.2,5.00,0.00,23.0,22.7,00.0,31.7,24.8,05.2,0000.0,0004.61,0008.75,0004.03
2023-01-29 17:47:00,,0824.2,4.99,0.00,22.9,22.1,00.0,31.7,24.7,05.2,0000.0,0004.64,0008.80,0004.03
2023-01-29 17:48:00,,0824.2,5.00,0.00,22.9,21.7,00.0,31.7,24.6,05.3,0000.0,0004.64,0008.81,0004.03
2023-01-29 17:49:00,,0824.2,5.01,0.00,22.9,21.5,00.0,31.7,24.5,05.3,0000.0,0004.64,0008.79,0004.02
2023-01-29 17:50:00,,0824.2,5.00,0.00,22.8,21.3,00.0,31.7,24.4,05.2,0000.0,0004.65,0009.33,0004.02
2023-01-29 17:51:00,,0824.2,5.01,0.00,22.8,21.0,00.0,31.7,24.4,05.3,0001.3,0004.63,0009.19,0004.01
2023-01-29 17:52:00,,0824.2,4.98,0.00,22.7,20.8,00.0,31.7,24.3,05.3,0002.5,0004.62,0009.15,0004.00
2023-01-29 17:53:00,,0824.2,5.01,0.00,22.7,21.2,00.0,31.6,24.4,05.3,0002.2,0004.59,0009.07,0003.99
2023-01-29 17:54:00,,0824.1,5.01,0.00,22.8,22.3,00.0,31.6,24.7,05.3,0001.2,0004.56,0008.25,0003.97
2023-01-29 17:55:00,,0824.1,5.00,0.00,22.9,23.1,00.0,31.6,24.9,05.2,0000.6,0004.55,0008.15,0003.95
2023-01-29 17:56:00,,0824.1,4.98,0.00,23.0,22.9,00.0,31.7,24.9,05.2,0000.7,0004.54,0008.47,0003.95
2023-01-29 17:57:00,,0824.2,4.99,0.00,22.9,22.4,00.0,31.7,24.8,05.1,0000.9,0004.52,0008.99,0003.93
2023-01-29 17:58:00,,0824.2,5.01,0.00,22.9,22.0,00.0,31.7,24.6,05.1,0000.5,0004.48,0008.91,0003.91
2023-01-29 17:59:00,,0824.2,5.00,0.00,22.9,21.7,00.0,31.7,24.6,05.2,-000.0,0004.50,0009.00,0003.89
